Time,TemperatureF,DewpointF,PressureIn,WindDirection,WindDirectionDegrees,WindSpeedMPH,WindSpeedGustMPH,Humidity,HourlyPrecipIn,Conditions,Clouds,dailyrainin,SoftwareType,DateUTC
2013-08-28 00:00:00,66.2,58.4,29.48,East,90,0.0,0.0,76,0.00,,,0.00,WUHU216HW,2013-08-28 07:00:00,
2013-08-28 00:05:00,66.2,58.4,29.48,East,90,0.0,0.0,76,0.00,,,0.00,WUHU216HW,2013-08-28 07:05:00,
2013-08-28 00:30:00,65.9,58.1,29.49,SSE,158,0.0,0.0,76,0.00,,,0.00,WUHU216HW,2013-08-28 07:30:00,
2013-08-28 00:35:00,65.9,58.1,29.49,SSE,158,0.0,0.0,76,0.00,,,0.00,WUHU216HW,2013-08-28 07:35:00,
2013-08-28 01:00:00,65.7,58.3,29.47,WSW,248,0.0,0.0,77,0.00,,,0.00,WUHU216HW,2013-08-28 08:00:00,
2013-08-28 01:05:00,65.7,58.3,29.48,WSW,248,0.0,0.0,77,0.00,,,0.00,WUHU216HW,2013-08-28 08:05:00,
2013-08-28 01:30:00,65.2,58.5,29.47,WSW,248,0.0,0.0,79,0.00,,,0.00,WUHU216HW,2013-08-28 08:30:00,
2013-08-28 01:35:00,65.2,58.5,29.47,WSW,248,0.0,0.0,79,0.00,,,0.00,WUHU216HW,2013-08-28 08:35:00,
2013-08-28 02:00:00,64.3,58.3,29.47,SW,225,0.0,0.0,81,0.01,,,0.00,WUHU216HW,2013-08-28 09:00:00,
2013-08-28 02:05:00,64.1,58.2,29.47,SW,225,0.0,0.0,81,0.01,,,0.01,WUHU216HW,2013-08-28 09:05:00,
2013-08-28 02:10:00,64.1,58.2,29.47,SW,225,0.0,0.0,81,0.01,,,0.01,WUHU216HW,2013-08-28 09:10:00,
2013-08-28 02:30:00,63.7,57.8,29.47,SW,225,0.0,0.0,81,0.01,,,0.01,WUHU216HW,2013-08-28 09:30:00,
2013-08-28 02:34:00,63.7,57.8,29.47,SW,225,0.0,0.0,81,0.01,,,0.01,WUHU216HW,2013-08-28 09:34:00,
2013-08-28 02:39:00,63.7,57.8,29.47,SW,225,0.0,0.0,81,0.01,,,0.01,WUHU216HW,2013-08-28 09:39:00,
2013-08-28 03:00:00,63.5,58.0,29.47,SW,225,0.0,0.0,82,0.00,,,0.01,WUHU216HW,2013-08-28 10:00:00,
2013-08-28 03:05:00,63.5,58.0,29.47,SW,225,0.0,0.0,82,0.00,,,0.01,WUHU216HW,2013-08-28 10:05:00,
2013-08-28 03:30:00,63.2,57.9,29.47,SE,135,0.7,0.7,83,0.00,,,0.01,WUHU216HW,2013-08-28 10:30:00,
2013-08-28 03:35:00,63.2,57.9,29.47,SE,135,0.7,0.7,83,0.00,,,0.01,WUHU216HW,2013-08-28 10:35:00,
2013-08-28 04:00:00,63.0,57.7,29.47,SE,135,0.0,0.0,83,0.00,,,0.01,WUHU216HW,2013-08-28 11:00:00,
2013-08-28 04:05:00,63.0,57.7,29.47,SE,135,0.0,0.0,83,0.00,,,0.01,WUHU216HW,2013-08-28 11:05:00,
2013-08-28 04:30:00,62.6,57.7,29.46,SE,135,0.0,0.0,84,0.00,,,0.01,WUHU216HW,2013-08-28 11:30:00,
2013-08-28 04:31:00,62.6,57.7,29.46,SE,135,0.0,0.0,84,0.00,,,0.01,WUHU216HW,2013-08-28 11:31:00,
2013-08-28 04:36:00,62.6,57.7,29.46,SE,135,0.0,0.0,84,0.00,,,0.01,WUHU216HW,2013-08-28 11:36:00,
2013-08-28 05:00:00,61.9,57.1,29.47,SE,135,0.0,0.0,84,0.00,,,0.01,WUHU216HW,2013-08-28 12:00:00,
2013-08-28 05:05:00,61.9,57.1,29.47,SE,135,0.0,0.0,84,0.00,,,0.01,WUHU216HW,2013-08-28 12:05:00,
2013-08-28 05:30:00,61.4,56.9,29.47,SE,135,0.0,0.0,85,0.00,,,0.01,WUHU216HW,2013-08-28 12:30:00,
2013-08-28 05:31:00,61.4,56.9,29.47,SE,135,0.0,0.0,85,0.00,,,0.01,WUHU216HW,2013-08-28 12:31:00,
2013-08-28 05:36:00,61.4,56.9,29.47,SE,135,0.0,0.0,85,0.00,,,0.01,WUHU216HW,2013-08-28 12:36:00,
2013-08-28 06:00:00,61.4,57.2,29.47,SE,135,0.0,0.0,86,0.00,,,0.01,WUHU216HW,2013-08-28 13:00:00,
2013-08-28 06:02:00,61.2,57.0,29.47,SE,135,0.0,0.0,86,0.00,,,0.01,WUHU216HW,2013-08-28 13:02:00,
2013-08-28 06:07:00,61.2,57.0,29.47,SE,135,0.0,0.0,86,0.00,,,0.01,WUHU216HW,2013-08-28 13:07:00,
2013-08-28 06:30:00,61.2,57.0,29.47,SSE,158,0.0,0.0,86,0.00,,,0.01,WUHU216HW,2013-08-28 13:30:00,
2013-08-28 06:31:00,61.2,57.0,29.47,SSE,158,0.0,0.0,86,0.00,,,0.01,WUHU216HW,2013-08-28 13:31:00,
2013-08-28 06:36:00,61.2,57.0,29.47,SSE,158,0.0,0.0,86,0.00,,,0.01,WUHU216HW,2013-08-28 13:36:00,
2013-08-28 07:00:00,61.4,57.2,29.48,SSE,158,0.0,0.0,86,0.00,,,0.01,WUHU216HW,2013-08-28 14:00:00,
2013-08-28 07:05:00,61.4,57.5,29.48,SSE,158,0.0,0.0,87,0.00,,,0.01,WUHU216HW,2013-08-28 14:05:00,
2013-08-28 07:30:00,64.8,60.6,29.48,SSE,158,0.0,0.0,86,0.00,,,0.01,WUHU216HW,2013-08-28 14:30:00,
2013-08-28 07:31:00,64.8,60.6,29.48,SSE,158,0.0,0.0,86,0.00,,,0.01,WUHU216HW,2013-08-28 14:31:00,
2013-08-28 07:36:00,64.8,60.6,29.48,SSE,158,0.0,0.0,86,0.00,,,0.01,WUHU216HW,2013-08-28 14:36:00,
2013-08-28 08:00:00,69.3,64.3,29.49,SW,225,0.0,0.0,84,0.00,,,0.01,WUHU216HW,2013-08-28 15:00:00,
2013-08-28 08:05:00,69.5,64.1,29.49,SW,225,0.2,0.2,83,0.00,,,0.01,WUHU216HW,2013-08-28 15:05:00,
2013-08-28 08:30:00,76.3,66.2,29.50,SE,135,0.2,0.4,71,0.00,,,0.01,WUHU216HW,2013-08-28 15:30:00,
2013-08-28 08:31:00,76.5,66.4,29.50,SE,135,0.4,0.4,71,0.00,,,0.01,WUHU216HW,2013-08-28 15:31:00,
2013-08-28 08:36:00,76.3,66.2,29.50,SE,135,0.2,0.4,71,0.00,,,0.01,WUHU216HW,2013-08-28 15:36:00,
2013-08-28 08:41:00,76.3,66.2,29.50,SE,135,0.2,0.4,71,0.00,,,0.01,WUHU216HW,2013-08-28 15:41:00,
2013-08-28 09:00:00,78.1,66.2,29.50,WSW,248,0.7,0.7,67,0.00,,,0.01,WUHU216HW,2013-08-28 16:00:00,
2013-08-28 09:05:00,78.1,66.2,29.50,SW,225,0.7,0.7,67,0.00,,,0.01,WUHU216HW,2013-08-28 16:05:00,
2013-08-28 09:30:00,78.8,64.4,29.49,SSE,158,2.2,2.2,61,0.00,,,0.01,WUHU216HW,2013-08-28 16:30:00,
2013-08-28 09:31:00,79.0,64.5,29.49,SSE,158,2.2,2.2,61,0.00,,,0.01,WUHU216HW,2013-08-28 16:31:00,
2013-08-28 09:36:00,78.8,64.4,29.49,SSE,158,2.2,2.2,61,0.00,,,0.01,WUHU216HW,2013-08-28 16:36:00,
2013-08-28 09:41:00,78.8,64.4,29.49,SSE,158,2.2,2.2,61,0.00,,,0.01,WUHU216HW,2013-08-28 16:41:00,
2013-08-28 10:00:00,79.6,64.5,29.50,SSE,158,0.7,0.7,60,0.00,,,0.01,WUHU216HW,2013-08-28 17:00:00,
2013-08-28 10:05:00,79.7,64.7,29.50,SSE,158,0.2,0.7,60,0.00,,,0.01,WUHU216HW,2013-08-28 17:05:00,
2013-08-28 10:30:00,81.0,63.3,29.50,West,270,1.8,1.8,55,0.00,,,0.01,WUHU216HW,2013-08-28 17:30:00,
2013-08-28 10:31:00,81.0,63.7,29.50,WSW,248,1.1,1.1,56,0.00,,,0.01,WUHU216HW,2013-08-28 17:31:00,
2013-08-28 10:36:00,81.0,63.3,29.50,West,270,1.8,1.8,55,0.00,,,0.01,WUHU216HW,2013-08-28 17:36:00,
2013-08-28 11:00:00,80.6,62.4,29.50,SE,135,1.1,1.1,54,0.00,,,0.01,WUHU216HW,2013-08-28 18:00:00,
2013-08-28 11:05:00,80.6,62.9,29.50,SE,135,2.0,2.0,55,0.00,,,0.01,WUHU216HW,2013-08-28 18:05:00,
2013-08-28 11:30:00,80.5,62.7,29.50,ESE,113,1.8,1.8,55,0.00,,,0.01,WUHU216HW,2013-08-28 18:30:00,
2013-08-28 11:31:00,80.5,62.7,29.50,ESE,113,1.8,1.8,55,0.00,,,0.01,WUHU216HW,2013-08-28 18:31:00,
2013-08-28 11:36:00,80.5,62.7,29.50,ESE,113,1.8,1.8,55,0.00,,,0.01,WUHU216HW,2013-08-28 18:36:00,
2013-08-28 11:41:00,80.5,62.7,29.50,ESE,113,1.8,1.8,55,0.00,,,0.01,WUHU216HW,2013-08-28 18:41:00,
2013-08-28 12:00:00,80.6,62.9,29.50,SW,225,2.5,2.5,55,0.00,,,0.01,WUHU216HW,2013-08-28 19:00:00,
2013-08-28 12:05:00,80.6,62.9,29.50,WSW,248,2.5,2.5,55,0.00,,,0.01,WUHU216HW,2013-08-28 19:05:00,
2013-08-28 12:10:00,80.6,62.9,29.50,WSW,248,2.5,2.5,55,0.00,,,0.01,WUHU216HW,2013-08-28 19:10:00,
2013-08-28 12:30:00,81.0,62.7,29.49,South,180,1.8,2.5,54,0.00,,,0.01,WUHU216HW,2013-08-28 19:30:00,
2013-08-28 12:31:00,81.0,63.3,29.49,SSE,158,2.5,2.5,55,0.00,,,0.01,WUHU216HW,2013-08-28 19:31:00,
2013-08-28 12:36:00,81.0,62.7,29.49,South,180,1.8,2.5,54,0.00,,,0.01,WUHU216HW,2013-08-28 19:36:00,
2013-08-28 13:00:00,81.2,62.4,29.49,SW,225,2.5,2.5,53,0.00,,,0.01,WUHU216HW,2013-08-28 20:00:00,
2013-08-28 13:05:00,81.2,62.4,29.49,WSW,248,3.4,3.4,53,0.00,,,0.01,WUHU216HW,2013-08-28 20:05:00,
2013-08-28 13:30:00,80.8,62.6,29.48,South,180,1.8,1.8,54,0.00,,,0.01,WUHU216HW,2013-08-28 20:30:00,
2013-08-28 13:31:00,80.8,62.6,29.48,South,180,0.7,0.7,54,0.00,,,0.01,WUHU216HW,2013-08-28 20:31:00,
2013-08-28 13:36:00,80.8,62.6,29.48,South,180,1.8,1.8,54,0.00,,,0.01,WUHU216HW,2013-08-28 20:36:00,
2013-08-28 14:00:00,81.7,61.3,29.48,SE,135,1.1,1.1,50,0.00,,,0.01,WUHU216HW,2013-08-28 21:00:00,
2013-08-28 14:05:00,81.7,61.3,29.48,SE,135,1.3,1.3,50,0.00,,,0.01,WUHU216HW,2013-08-28 21:05:00,
2013-08-28 14:30:00,82.1,61.0,29.48,SE,135,2.5,2.5,49,0.00,,,0.01,WUHU216HW,2013-08-28 21:30:00,
2013-08-28 14:31:00,82.1,61.0,29.48,SE,135,2.5,2.5,49,0.00,,,0.01,WUHU216HW,2013-08-28 21:31:00,
2013-08-28 14:36:00,82.1,61.0,29.48,SE,135,2.5,2.5,49,0.00,,,0.01,WUHU216HW,2013-08-28 21:36:00,
2013-08-28 15:00:00,82.6,61.5,29.47,West,270,2.9,2.9,49,0.00,,,0.01,WUHU216HW,2013-08-28 22:00:00,
2013-08-28 15:05:00,82.6,61.5,29.47,West,270,2.9,2.9,49,0.00,,,0.01,WUHU216HW,2013-08-28 22:05:00,
2013-08-28 15:10:00,82.6,61.5,29.47,West,270,2.9,2.9,49,0.00,,,0.01,WUHU216HW,2013-08-28 22:10:00,
2013-08-28 15:30:00,81.9,61.5,29.47,ESE,113,1.3,2.7,50,0.00,,,0.01,WUHU216HW,2013-08-28 22:30:00,
2013-08-28 15:31:00,81.9,61.5,29.47,SSE,158,2.7,2.7,50,0.00,,,0.01,WUHU216HW,2013-08-28 22:31:00,
2013-08-28 15:36:00,81.9,61.5,29.47,ESE,113,1.3,2.7,50,0.00,,,0.01,WUHU216HW,2013-08-28 22:36:00,
2013-08-28 15:41:00,81.9,61.5,29.47,ESE,113,1.3,1.3,50,0.00,,,0.01,WUHU216HW,2013-08-28 22:41:00,
2013-08-28 16:00:00,82.3,61.1,29.47,SSW,203,1.3,1.3,49,0.00,,,0.01,WUHU216HW,2013-08-28 23:00:00,
2013-08-28 16:05:00,82.3,61.7,29.47,SSW,203,0.7,1.3,50,0.00,,,0.01,WUHU216HW,2013-08-28 23:05:00,
2013-08-28 16:30:00,82.4,61.9,29.46,North,0,2.9,2.9,50,0.00,,,0.01,WUHU216HW,2013-08-28 23:30:00,
2013-08-28 16:31:00,82.4,61.9,29.46,East,90,2.7,2.7,50,0.00,,,0.01,WUHU216HW,2013-08-28 23:31:00,
2013-08-28 16:36:00,82.4,61.9,29.46,North,0,2.9,2.9,50,0.00,,,0.01,WUHU216HW,2013-08-28 23:36:00,
2013-08-28 17:00:00,81.7,61.8,29.46,SSE,158,1.6,1.6,51,0.00,,,0.01,WUHU216HW,2013-08-29 00:00:00,
2013-08-28 17:05:00,81.7,61.8,29.46,SSW,203,0.9,1.6,51,0.00,,,0.01,WUHU216HW,2013-08-29 00:05:00,
2013-08-28 17:10:00,81.7,61.8,29.46,SSW,203,0.9,1.6,51,0.00,,,0.01,WUHU216HW,2013-08-29 00:10:00,
2013-08-28 17:30:00,80.3,61.6,29.47,SE,135,1.8,1.8,53,0.00,,,0.01,WUHU216HW,2013-08-29 00:30:00,
2013-08-28 17:31:00,80.5,61.8,29.47,SE,135,1.1,1.1,53,0.00,,,0.01,WUHU216HW,2013-08-29 00:31:00,
2013-08-28 17:36:00,80.3,61.6,29.47,SE,135,1.8,1.8,53,0.00,,,0.01,WUHU216HW,2013-08-29 00:36:00,
2013-08-28 17:41:00,80.3,61.6,29.47,SE,135,1.8,1.8,53,0.00,,,0.01,WUHU216HW,2013-08-29 00:41:00,
2013-08-28 18:00:00,79.7,61.6,29.48,WSW,248,2.9,2.9,54,0.00,,,0.01,WUHU216HW,2013-08-29 01:00:00,
2013-08-28 18:05:00,79.6,61.4,29.48,WNW,293,4.3,4.3,54,0.00,,,0.01,WUHU216HW,2013-08-29 01:05:00,
2013-08-28 18:30:00,78.3,61.3,29.48,WSW,248,1.8,1.8,56,0.00,,,0.01,WUHU216HW,2013-08-29 01:30:00,
2013-08-28 18:31:00,78.3,61.3,29.48,NW,315,1.8,1.8,56,0.00,,,0.01,WUHU216HW,2013-08-29 01:31:00,
2013-08-28 18:36:00,78.3,61.3,29.48,WSW,248,1.8,1.8,56,0.00,,,0.01,WUHU216HW,2013-08-29 01:36:00,
2013-08-28 19:00:00,76.7,60.8,29.49,West,270,1.1,1.1,58,0.00,,,0.01,WUHU216HW,2013-08-29 02:00:00,
2013-08-28 19:05:00,76.7,60.8,29.49,West,270,1.1,1.1,58,0.00,,,0.01,WUHU216HW,2013-08-29 02:05:00,
2013-08-28 19:10:00,76.7,60.8,29.49,West,270,1.1,1.1,58,0.00,,,0.01,WUHU216HW,2013-08-29 02:10:00,
2013-08-28 19:30:00,75.2,60.5,29.49,WSW,248,2.0,2.0,60,0.00,,,0.01,WUHU216HW,2013-08-29 02:30:00,
2013-08-28 19:31:00,75.2,60.5,29.49,West,270,0.7,0.7,60,0.00,,,0.01,WUHU216HW,2013-08-29 02:31:00,
2013-08-28 19:36:00,75.2,60.5,29.49,WSW,248,2.0,2.0,60,0.00,,,0.01,WUHU216HW,2013-08-29 02:36:00,
2013-08-28 20:00:00,74.0,60.1,29.49,SW,225,0.0,0.0,62,0.00,,,0.01,WUHU216HW,2013-08-29 03:00:00,
2013-08-28 20:05:00,74.0,60.1,29.49,SW,225,0.0,0.0,62,0.00,,,0.01,WUHU216HW,2013-08-29 03:05:00,
2013-08-28 20:30:00,72.9,59.9,29.50,ENE,68,0.0,0.0,64,0.00,,,0.01,WUHU216HW,2013-08-29 03:30:00,
2013-08-28 20:31:00,72.9,59.9,29.50,ENE,68,0.0,0.0,64,0.00,,,0.01,WUHU216HW,2013-08-29 03:31:00,
2013-08-28 20:36:00,72.9,59.9,29.50,ENE,68,0.0,0.0,64,0.00,,,0.01,WUHU216HW,2013-08-29 03:36:00,
2013-08-28 21:00:00,71.8,59.9,29.51,ENE,68,0.2,0.2,66,0.00,,,0.01,WUHU216HW,2013-08-29 04:00:00,
2013-08-28 21:01:00,72.0,60.0,29.51,ENE,68,0.2,0.2,66,0.00,,,0.01,WUHU216HW,2013-08-29 04:01:00,
2013-08-28 21:02:00,72.0,60.0,29.51,ENE,68,0.2,0.2,66,0.00,,,0.01,WUHU216HW,2013-08-29 04:02:00,
2013-08-28 21:07:00,72.0,60.0,29.51,ENE,68,0.0,0.2,66,0.00,,,0.01,WUHU216HW,2013-08-29 04:07:00,
2013-08-28 21:30:00,71.1,59.1,29.52,ESE,113,0.0,0.0,66,0.00,,,0.01,WUHU216HW,2013-08-29 04:30:00,
2013-08-28 21:31:00,71.1,58.7,29.52,ENE,68,0.0,0.0,65,0.00,,,0.01,WUHU216HW,2013-08-29 04:31:00,
2013-08-28 21:36:00,71.1,59.1,29.52,ESE,113,0.0,0.0,66,0.00,,,0.01,WUHU216HW,2013-08-29 04:36:00,
2013-08-28 22:00:00,70.4,58.9,29.52,East,90,0.0,0.0,67,0.00,,,0.01,WUHU216HW,2013-08-29 05:00:00,
2013-08-28 22:05:00,70.2,58.7,29.52,East,90,0.0,0.0,67,0.00,,,0.01,WUHU216HW,2013-08-29 05:05:00,
2013-08-28 22:30:00,69.3,59.1,29.52,NNW,338,0.0,0.0,70,0.00,,,0.01,WUHU216HW,2013-08-29 05:30:00,
2013-08-28 22:31:00,69.3,59.1,29.52,NNW,338,0.0,0.0,70,0.00,,,0.01,WUHU216HW,2013-08-29 05:31:00,
2013-08-28 22:36:00,69.3,59.1,29.52,NNW,338,0.0,0.0,70,0.00,,,0.01,WUHU216HW,2013-08-29 05:36:00,
2013-08-28 23:00:00,69.1,59.0,29.52,ESE,113,0.0,0.0,70,0.00,,,0.01,WUHU216HW,2013-08-29 06:00:00,
2013-08-28 23:05:00,69.1,59.0,29.52,ESE,113,0.0,0.0,70,0.00,,,0.01,WUHU216HW,2013-08-29 06:05:00,
2013-08-28 23:10:00,69.1,59.0,29.52,ESE,113,0.0,0.0,70,0.00,,,0.01,WUHU216HW,2013-08-29 06:10:00,
2013-08-28 23:30:00,68.6,58.9,29.52,East,90,0.9,0.9,71,0.00,,,0.01,WUHU216HW,2013-08-29 06:30:00,
2013-08-28 23:31:00,68.6,58.9,29.52,ENE,68,0.7,0.7,71,0.00,,,0.01,WUHU216HW,2013-08-29 06:31:00,
2013-08-28 23:36:00,68.6,58.9,29.52,East,90,0.9,0.9,71,0.00,,,0.01,WUHU216HW,2013-08-29 06:36:00,